WetterOnline ( http://www.wetteronline.ch )

Wetter aktuell Freiburg

Aktuelles Wetter: Freiburg/Flugplatz (236m)

6-stündlich | Neueste Meldungen
Ortszeit Temperatur Wetter
Di, 19.03. 1:00 0.5° C fast wolkenlos
Mo, 18.03. 19:00 7.2° C bedeckt
Mo, 18.03. 13:00 7.5° C bedeckt
Mo, 18.03. 7:00 2.4° C bewölkt
Mo, 18.03. 1:00 3.4° C wolkenlos
So, 17.03. 19:00 5.7° C bedeckt
So, 17.03. 13:00 15.3° C bewölkt
So, 17.03. 7:00 14.2° C wolkig
Ortszeit Temperatur Wetter
Di, 19.03. 6:00 -1.3° C bedeckt
Di, 19.03. 5:50 -1.3° C bedeckt
Di, 19.03. 5:40 -1.5° C bedeckt
Di, 19.03. 5:30 -1.3° C bedeckt
Di, 19.03. 5:20 -1.3° C bedeckt
Di, 19.03. 5:10 -1.3° C bewölkt
Di, 19.03. 5:00 -0.9° C bewölkt
Di, 19.03. 4:30 -1.0° C wolkig
Di, 19.03. 4:00 -0.3° C fast wolkenlos
Di, 19.03. 3:30 -1.0° C bewölkt
Di, 19.03. 3:00 -0.7° C leicht bewölkt
Ortszeit Relative Feuchte Sichtweite
Di, 19.03. 1:00 88% 35 km
Mo, 18.03. 19:00 60% 70 km
Mo, 18.03. 13:00 64% 70 km
Mo, 18.03. 7:00 92% 50 km
Mo, 18.03. 1:00 82% 70 km
So, 17.03. 19:00 81% 70 km
So, 17.03. 13:00 44% 45 km
So, 17.03. 7:00 36% 70 km
Ortszeit Relative Feuchte Sichtweite
Di, 19.03. 6:00 93% 25 km
Di, 19.03. 5:50 93% -
Di, 19.03. 5:40 92% -
Di, 19.03. 5:30 94% 20 km
Di, 19.03. 5:20 94% -
Di, 19.03. 5:10 95% -
Di, 19.03. 5:00 94% 30 km
Di, 19.03. 4:30 94% 27 km
Di, 19.03. 4:00 92% 35 km
Di, 19.03. 3:30 88% 21 km
Di, 19.03. 3:00 93% 22 km
Ortszeit Niederschlagsmenge Niederschlagsart
Di, 19.03. 1:00 0.0 l/m2 in 6 Std. -
Mo, 18.03. 19:00 0.1 l/m2 in 12 Std. Regen
Mo, 18.03. 13:00 0.1 l/m2 in 6 Std. Regen
Mo, 18.03. 7:00 8 l/m2 in 12 Std. Schnee, Regen
Mo, 18.03. 1:00 3 l/m2 in 6 Std. Regen
So, 17.03. 19:00 5 l/m2 in 12 Std. Regen
So, 17.03. 13:00 0.0 l/m2 in 6 Std. -
So, 17.03. 7:00 0.0 l/m2 in 12 Std. -
Ortszeit Niederschlagsmenge Niederschlagsart
Di, 19.03. 6:00 0.0 l/m2 in 1 Std. -
Di, 19.03. 5:50 keine Meldung -
Di, 19.03. 5:40 keine Meldung -
Di, 19.03. 5:30 0.0 l/m2 in 1 Std. -
Di, 19.03. 5:20 keine Meldung -
Di, 19.03. 5:10 keine Meldung -
Di, 19.03. 5:00 0.0 l/m2 in 1 Std. -
Di, 19.03. 4:30 0.0 l/m2 in 1 Std. -
Di, 19.03. 4:00 0.0 l/m2 in 1 Std. -
Di, 19.03. 3:30 0.0 l/m2 in 1 Std. -
Di, 19.03. 3:00 0.0 l/m2 in 1 Std. -
Ortszeit Stärke Spitze Richtung
km/h Bft. km/h Grad Sektor
Di, 19.03. 1:00 4 1 14 360° N
Mo, 18.03. 19:00 6 1 33 290° W
Mo, 18.03. 13:00 20 4 37 240° SW
Mo, 18.03. 7:00 6 1 31 220° SW
Mo, 18.03. 1:00 13 3 43 180° S
So, 17.03. 19:00 24 4 65 210° SW
So, 17.03. 13:00 44 6 70 240° SW
So, 17.03. 7:00 31 5 56 210° SW
Ortszeit Stärke Spitze Richtung
km/h Bft. km/h Grad Sektor
Di, 19.03. 6:00 0 0 4 - -
Di, 19.03. 5:50 0 0 - 50° NO
Di, 19.03. 5:40 2 1 - 10° N
Di, 19.03. 5:30 0 0 4 - -
Di, 19.03. 5:20 0 0 - 10° N
Di, 19.03. 5:10 2 1 - 270° W
Di, 19.03. 5:00 0 0 7 - -
Di, 19.03. 4:30 2 1 6 280° W
Di, 19.03. 4:00 4 1 11 320° NW
Di, 19.03. 3:30 7 2 11 20° N
Di, 19.03. 3:00 4 1 7 160° S
Ortszeit Untergrenze Bedeckung Gattung
total tief tief mittel hoch
Di, 19.03. 1:00 2100 m 1/8 1/8 - - -
Mo, 18.03. 19:00 1500 m 8/8 8/8 - - -
Mo, 18.03. 13:00 900 m 8/8 8/8 - - -
Mo, 18.03. 7:00 1110 m 7/8 7/8 - - -
Mo, 18.03. 1:00 - 0/8 0/8 - - -
So, 17.03. 19:00 1470 m 8/8 8/8 - - -
So, 17.03. 13:00 1500 m 7/8 7/8 - - -
So, 17.03. 7:00 9000 m 8/8 0/8 - - -
Ortszeit Bedeckungsgrad in Achtel und Wolkenuntergrenze
Di, 19.03. 6:00 7(1200m) 8(2100m) 8(2400m)
Di, 19.03. 5:50 7(1200m) 8(2100m) 8(2400m)
Di, 19.03. 5:40 5(1200m) 8(2100m)
Di, 19.03. 5:30 8(2100m) 8(2100m)
Di, 19.03. 5:20 8(2100m)
Di, 19.03. 5:10 7(2100m)
Di, 19.03. 5:00 7(2100m)
Di, 19.03. 4:30 4(1800m) 5(2400m)
Di, 19.03. 4:00 3(1800m)
Di, 19.03. 3:30 6(1260m) 7(1470m)
Di, 19.03. 3:00 3(1290m)
Ortszeit Luftdruck NN (hPa) Tendenz (hPa in 3 Std.)
Di, 19.03. 1:00 1026 + 0,4
Mo, 18.03. 19:00 1024 + 1,7
Mo, 18.03. 13:00 1022 + 0,3
Mo, 18.03. 7:00 1021 + 1,0
Mo, 18.03. 1:00 1018 + 0,4
So, 17.03. 19:00 1014 + 1,8
So, 17.03. 13:00 1007 - 0,1
So, 17.03. 7:00 1007 - 0,5
Ortszeit Luftdruck NN (hPa) Tendenz (hPa in 3 Std.)
Di, 19.03. 6:00 1027 + 0,9
Di, 19.03. 5:50 1027 keine Meldung
Di, 19.03. 5:40 1027 keine Meldung
Di, 19.03. 5:30 1027 + 0,6
Di, 19.03. 5:20 1027 keine Meldung
Di, 19.03. 5:10 1027 keine Meldung
Di, 19.03. 5:00 1027 + 0,3
Di, 19.03. 4:30 1026 + 0,3
Di, 19.03. 4:00 1026 + 0,2
Di, 19.03. 3:30 1026 + 0,2
Di, 19.03. 3:00 1026 0,0
Ortszeit Schneehöhe (cm)
Di, 19.03. 1:00 0
Mo, 18.03. 19:00 0
Mo, 18.03. 13:00 0
Mo, 18.03. 7:00 0
Mo, 18.03. 1:00 0
So, 17.03. 19:00 0
So, 17.03. 13:00 0
So, 17.03. 7:00 0
Ortszeit Schneehöhe (cm)
Di, 19.03. 6:00 0
Di, 19.03. 5:50 0
Di, 19.03. 5:40 0
Di, 19.03. 5:30 0
Di, 19.03. 5:20 0
Di, 19.03. 5:10 0
Di, 19.03. 5:00 0
Di, 19.03. 4:30 0
Di, 19.03. 4:00 0
Di, 19.03. 3:30 0
Di, 19.03. 3:00 0
Link zu dieser Seite / Seite empfehlen

Das Wetter in ...